sat.trackr.live / text

‹ back to catalog

STARLINK-37196

NORAD 69163 · 2026-111R

PAYLOAD ACTIVE UNKNOWN

§ Identity

Operator
Country
US
Launch date
2026-05-21
Launch site
AFETR
Launch vehicle
Mass (kg)
RCS (m²)

Purposes: comms

External: N2YO · Heavens-Above · Gunter

§ Orbital elements

Epoch: 2026-09-20T00:15:27.937728Z

Period
93.85 min
Inclination
53.1578°
Eccentricity
0.0000857
Mean motion
15.34391028 rev/d
Perigee alt
462.1 km
Apogee alt
463.3 km
Semi-major
6,840.9 km
B*
6.5184e-4
RAAN
68.0028°
Arg perigee
84.6178°
Mean anomaly
275.4923°
Rev number
1,882

§ Raw data

STARLINK-371961 69163U 26111R   26263.01074002  .00021705  00000+0  65184-3 0  99902 69163  53.1578  68.0028 0000857  84.6178 275.4923 15.34391028 18821

JSON: /api/v1/satellites/69163 · /tle

For live sub-satellite position, see the globe view (requires WebGL).

§ Visibility from observer

Set your observer location to see the next 7 days of passes ≥ 10°. The values pass through the URL so the page stays shareable.

No JS? Fill the form by hand. The geolocation button needs JavaScript.